Regional Weather Roundup
Issued by NWS

Home | Current Version | Previous Version | Graphics & Text | Print | Product List | Glossary On
Versions: 1 2 3 4 5 6 7 8 9 10 11 12 13 14 15 16 17 18 19 20 21 22 23 24 25 26 27 28 29 30 31 32 33 34 35 36 37 38 39 40 41 42 43 44 45 46 47 48 49 50
000
ASUS43 KOAX 271702
RWRNE

WEATHER ROUNDUP FOR NEBRASKA
NATIONAL WEATHER SERVICE OMAHA NE
1200 PM CDT TUE JUN 27 2017

NOTES: SATELLITE DATA IS BEING USED TO AUGMENT CLOUD COVER ABOVE
       12000 FEET.
       "FAIR" INDICATES FEW OR NO CLOUDS BELOW 12,000 FEET WITH NO
       SIGNIFICANT WEATHER AND/OR OBSTRUCTIONS TO VISIBILITY.

  * THESE STATIONS DO NOT REPORT WEATHER SUCH AS RAIN...SNOW OR FOG.

NEZ001>004-019>022-054>056-271800-
NEBRASKA PANHANDLE

CITY           SKY/WX    TMP DP  RH WIND       PRES   REMARKS
SCOTTSBLUFF    SUNNY     82  58  43 SE9G20    29.77F
ALLIANCE       SUNNY     78  56  46 S21G29    29.81F
CHADRON        SUNNY     83  56  39 S15       29.71F
GORDON         FAIR      78  58  49 SW22G28   29.78F
KIMBALL        SUNNY     79  55  43 S13       29.89F
SIDNEY         SUNNY     76  58  53 S18G24    29.88F
$$

NEZ057>060-069>072-079>082-271800-
SOUTHWEST NEBRASKA

CITY           SKY/WX    TMP DP  RH WIND       PRES   REMARKS
NORTH PLATTE   CLOUDY    69  61  75 S13       29.91F
IMPERIAL       MOSUNNY   73  59  61 SE15G21   29.90F
LEXINGTON      PTSUNNY   75  62  63 S21       29.92F
MCCOOK         CLOUDY    67  63  87 S10       29.92F
OGALLALA       MOSUNNY   74  60  59 SE14G21   29.87F
$$

NEZ005>010-023>029-035>040-094-271800-
NORTH CENTRAL NEBRASKA

CITY           SKY/WX    TMP DP  RH WIND       PRES   REMARKS
VALENTINE      SUNNY     81  55  40 S24G32    29.82F
AINSWORTH      SUNNY     75  58  55 S24G32    29.85F
BROKEN BOW     SUNNY     76  59  55 S22G31    29.91F
O`NEILL        SUNNY     76  55  48 SE21G28   29.91F
ORD            SUNNY     75  55  49 S18G28    29.92F
THEDFORD       CLOUDY    76  60  57 S18G26    29.90F
$$

NEZ041-046>049-061>064-073>077-083>087-271800-
SOUTH CENTRAL NEBRASKA

CITY           SKY/WX    TMP DP  RH WIND       PRES   REMARKS
GRAND ISLAND   SUNNY     75  61  61 SE18G25   29.97F
AURORA         MOSUNNY   74  59  58 S18G24    29.97F
HASTINGS       SUNNY     75  59  57 SE20G28   29.97F
HEBRON         SUNNY     77  63  61 SE16      29.97F
HOLDREGE       CLOUDY    72  61  67 S20       29.93F
KEARNEY *      SUNNY     75  61  60 SE20      29.95F
YORK           SUNNY     73  59  60 SE17G24   29.98F
$$

NEZ011>018-030>034-042>045-271800-
NORTHEAST NEBRASKA

CITY           SKY/WX    TMP DP  RH WIND       PRES   REMARKS
NORFOLK        SUNNY     75  53  46 S20G25    29.96F
ALBION         SUNNY     75  53  46 SE14G23   29.97F
BLAIR          SUNNY     74  56  53 SE10G18   30.02F
FREMONT        SUNNY     73  55  53 SE18      30.01F
TEKAMAH        SUNNY     75  52  44 SE18G26   30.01F
WAYNE          SUNNY     74  53  48 S17G25    29.98F
$$

NEZ050>053-065>068-078-088>093-271800-
SOUTHEAST NEBRASKA

CITY           SKY/WX    TMP DP  RH WIND       PRES   REMARKS
LINCOLN        SUNNY     74  59  59 S18G24    30.01F
OMAHA EPPLEY   MOSUNNY   75  57  53 SE18G24   30.03F
BEATRICE       SUNNY     74  62  66 SE17      30.01F
FALLS CITY     SUNNY     74  61  63 SE18G24   30.03F
NEBRASKA CITY  SUNNY     72  62  68 SE13G20   30.04F
PLATTSMOUTH    MOSUNNY   73  59  62 SE13G20   30.03F
$$

NEZ044-045-051>053-067-271800-
OMAHA AREA

CITY           SKY/WX    TMP DP  RH WIND       PRES   REMARKS
OMAHA EPPLEY   MOSUNNY   75  57  53 SE18G24   30.03F
BLAIR          SUNNY     74  56  53 SE10G18   30.02F
FREMONT        SUNNY     73  55  53 SE18      30.01F
MILLARD        MOSUNNY   74  61  63 SE14G21   30.02F
OFFUTT AFB     MOSUNNY   74  59  58 SE15G22   30.01F
PLATTSMOUTH    MOSUNNY   73  59  62 SE13G20   30.03F
WAHOO          CLOUDY    74  56  51 SE16G24   30.00F
$$




USA.gov is the U.S. government's official web portal to all federal, state and local government web resources and services.